Date String (YYYY-MM-DD hh:mm:ss) UTC,Instrument flags,absolute air pressure of the measurement (hPa),sample flow rate (lpm),inlet stack bypass flow (lpm),air temperature of the measurement (°C),ambient temperature measured by the external sensor (°C),aerosol sample conditioner tube jacket temperature (°C),OPC LED temperature (°C),internal box temperature (°C),relative humidity of the measurement (%),span deviation,mass concentration of particles derived from Lorenz-Mie calculation of OPC scattering (μg/m³),mass concentration of particles derived from Lorenz-Mie calculation of OPC scattering (μg/m³),mass concentration of particles derived from Lorenz-Mie calculation of OPC scattering (μg/m³)
DateTimeUTC,F1_M11,P_M11,Q1_M11,Q2_M11,T1_M11,T2_M11,T3_M11,T4_M11,T5_M11,U1_M11,ZSPAN_M11,X2_M11,X0_M11,X1_M11
2023-07-03 13:00:00,SystemResetWarning,0832.2,4.99,000.00,030.0,028.7,000.0,038.5,031.5,21.7,0000.0,0004.13,0008.82,0003.76
2023-07-03 13:01:00,SystemResetWarning,0832.2,4.98,000.00,030.0,028.2,000.0,038.4,031.5,21.1,0000.0,0004.12,0008.79,0003.76
2023-07-03 13:02:00,SystemResetWarning,0832.1,5.00,000.00,029.9,026.2,000.0,038.3,031.3,21.7,0000.0,0004.14,0008.83,0003.77
2023-07-03 13:03:00,SystemResetWarning,0832.1,5.00,000.00,029.9,025.2,000.0,038.2,031.1,22.1,0000.0,0004.13,0008.87,0003.76
2023-07-03 13:04:00,SystemResetWarning,0832.1,5.02,000.00,029.7,025.4,000.0,038.2,030.8,22.0,0000.0,0004.12,0008.52,0003.76
2023-07-03 13:05:00,SystemResetWarning,0832.1,5.00,000.00,029.6,025.8,000.0,038.2,030.7,22.1,0000.0,0004.12,0007.86,0003.76
2023-07-03 13:06:00,SystemResetWarning,0832.1,5.00,000.00,029.6,026.2,000.0,038.2,030.8,22.4,0000.0,0004.15,0007.93,0003.76
2023-07-03 13:07:00,SystemResetWarning,0832.1,4.99,000.00,029.5,026.6,000.0,038.2,030.8,22.0,0000.0,0004.18,0008.09,0003.77
2023-07-03 13:08:00,SystemResetWarning,0832.1,4.99,000.00,029.5,026.9,000.0,038.2,030.9,21.7,0000.0,0004.20,0008.75,0003.77
2023-07-03 13:09:00,SystemResetWarning,0832.1,5.00,000.00,029.5,027.2,000.0,038.2,030.9,22.2,0000.0,0004.21,0008.12,0003.78
2023-07-03 13:10:00,SystemResetWarning,0832.1,5.00,000.00,029.5,027.4,000.0,038.2,031.0,22.2,0000.0,0004.20,0008.16,0003.78
2023-07-03 13:11:00,SystemResetWarning,0832.1,5.00,000.00,029.5,027.6,000.0,038.2,031.0,21.5,0000.0,0004.18,0008.04,0003.78
2023-07-03 13:12:00,SystemResetWarning,0832.1,4.98,000.00,029.5,027.8,000.0,038.2,031.1,21.6,0000.0,0004.16,0008.17,0003.78
2023-07-03 13:13:00,SystemResetWarning,0832.1,5.00,000.00,029.5,027.9,000.0,038.2,031.1,21.4,0000.0,0004.15,0008.55,0003.78
2023-07-03 13:14:00,SystemResetWarning,0832.2,5.00,000.00,029.6,028.0,000.0,038.2,031.1,22.7,0000.0,0004.13,0008.47,0003.78
2023-07-03 13:15:00,SystemResetWarning,0832.2,5.01,000.00,029.6,028.1,000.0,038.2,031.1,22.7,0000.0,0004.15,0008.56,0003.78
2023-07-03 13:16:00,SystemResetWarning,0832.2,5.01,000.00,029.6,028.2,000.0,038.2,031.2,22.5,0000.0,0004.16,0008.67,0003.79
2023-07-03 13:17:00,SystemResetWarning,0832.2,5.00,000.00,029.6,028.3,000.0,038.2,031.2,22.5,0000.0,0004.14,0008.73,0003.80
2023-07-03 13:18:00,SystemResetWarning,0832.2,5.00,000.00,029.7,028.3,000.0,038.2,031.2,23.1,0000.0,0004.15,0008.85,0003.81
2023-07-03 13:19:00,SystemResetWarning,0832.2,4.99,000.00,029.7,028.4,000.0,038.2,031.2,23.6,0000.0,0004.15,0008.23,0003.82
2023-07-03 13:20:00,SystemResetWarning,0832.2,5.00,000.00,029.7,028.4,000.0,038.2,031.3,23.8,0000.0,0004.16,0008.21,0003.83
2023-07-03 13:21:00,SystemResetWarning,0832.2,5.00,000.00,029.7,028.5,000.0,038.2,031.3,24.1,0000.0,0004.16,0007.99,0003.84
2023-07-03 13:22:00,SystemResetWarning,0832.2,5.00,000.00,029.7,028.5,000.0,038.3,031.3,24.2,0000.0,0004.17,0008.19,0003.86
2023-07-03 13:23:00,SystemResetWarning,0832.2,5.00,000.00,029.8,028.6,000.0,038.3,031.4,24.4,0000.0,0004.19,0007.99,0003.87
2023-07-03 13:24:00,SystemResetWarning,0832.3,4.99,000.00,029.8,028.6,000.0,038.3,031.4,25.0,0000.0,0004.26,0007.98,0003.89
2023-07-03 13:25:00,SystemResetWarning,0832.3,5.01,000.00,029.8,028.7,000.0,038.3,031.4,25.5,0000.0,0004.30,0008.11,0003.91
2023-07-03 13:26:00,SystemResetWarning,0832.3,5.00,000.00,029.8,028.3,000.0,038.3,031.4,25.1,0000.0,0004.29,0008.04,0003.93
2023-07-03 13:27:00,SystemResetWarning,0832.3,5.00,000.00,029.8,026.5,000.0,038.2,031.2,27.4,0000.0,0004.28,0008.21,0003.94
2023-07-03 13:28:00,SystemResetWarning,0832.3,5.01,000.00,029.7,025.4,000.0,038.1,031.0,29.9,0000.0,0004.34,0008.55,0003.95
2023-07-03 13:29:00,SystemResetWarning,0832.2,5.01,000.00,029.7,025.6,000.0,038.0,030.9,30.2,0000.0,0004.35,0008.34,0003.95
2023-07-03 13:30:00,SystemResetWarning,0832.3,5.01,000.00,029.6,026.0,000.0,038.1,030.8,30.4,0000.0,0004.34,0008.35,0003.96
2023-07-03 13:31:00,SystemResetWarning,0832.3,4.99,000.00,029.5,026.4,000.0,038.1,030.8,30.8,0000.0,0004.36,0008.42,0003.97
2023-07-03 13:32:00,SystemResetWarning,0832.3,5.00,000.00,029.5,026.7,000.0,038.1,030.9,29.1,0000.0,0004.41,0008.93,0003.98
2023-07-03 13:33:00,SystemResetWarning,0832.3,5.00,000.00,029.5,027.0,000.0,038.1,030.9,30.0,0000.0,0004.44,0009.19,0003.99
2023-07-03 13:34:00,SystemResetWarning,0832.3,5.00,000.00,029.5,027.3,000.0,038.1,031.0,31.2,0000.0,0004.47,0009.49,0003.99
2023-07-03 13:35:00,SystemResetWarning,0832.3,5.01,000.00,029.5,027.5,000.0,038.1,031.0,31.5,0000.0,0004.42,0009.42,0003.98
2023-07-03 13:36:00,SystemResetWarning,0832.3,5.00,000.00,029.5,027.7,000.0,038.1,031.1,31.4,0000.0,0004.44,0009.83,0003.97
2023-07-03 13:37:00,SystemResetWarning,0832.3,5.00,000.00,029.5,027.9,000.0,038.1,031.1,31.5,0000.0,0004.46,0010.24,0003.97
2023-07-03 13:38:00,SystemResetWarning,0832.3,5.00,000.00,029.5,028.0,000.0,038.1,031.1,28.7,0000.0,0004.52,0010.81,0003.99
2023-07-03 13:39:00,SystemResetWarning,0832.3,5.00,000.00,029.6,028.1,000.0,038.1,031.2,29.0,0000.0,0004.52,0010.70,0004.00
2023-07-03 13:40:00,SystemResetWarning,0832.3,5.00,000.00,029.6,028.2,000.0,038.1,031.2,28.8,0000.0,0004.52,0010.71,0004.00
2023-07-03 13:41:00,SystemResetWarning,0832.3,5.00,000.00,029.6,028.3,000.0,038.1,031.2,26.7,0000.0,0004.54,0010.78,0004.01
2023-07-03 13:42:00,SystemResetWarning,0832.3,5.00,000.00,029.6,028.4,000.0,038.2,031.3,26.7,0000.0,0004.55,0010.81,0004.01
2023-07-03 13:43:00,SystemResetWarning,0832.3,5.00,000.00,029.7,028.5,000.0,038.2,031.3,27.2,0000.0,0004.57,0010.93,0004.02
2023-07-03 13:44:00,SystemResetWarning,0832.3,5.00,000.00,029.7,028.5,000.0,038.2,031.3,27.1,0000.0,0004.60,0011.42,0004.03
2023-07-03 13:45:00,SystemResetWarning,0832.3,5.00,000.00,029.7,028.4,000.0,038.2,031.4,25.3,0000.0,0004.61,0011.67,0004.04
2023-07-03 13:46:00,SystemResetWarning,0832.3,4.99,000.00,029.7,026.9,000.0,038.1,031.2,25.0,0000.0,0004.62,0011.48,0004.04
2023-07-03 13:47:00,SystemResetWarning,0832.3,5.01,000.00,029.6,025.5,000.0,038.0,030.9,27.6,0000.0,0004.61,0010.93,0004.05
2023-07-03 13:48:00,SystemResetWarning,0832.2,5.01,000.00,029.5,025.5,000.0,037.9,030.8,29.2,0000.0,0004.61,0010.75,0004.05
2023-07-03 13:49:00,SystemResetWarning,0832.2,5.01,000.00,029.4,025.8,000.0,038.0,030.6,28.5,0000.0,0004.59,0010.15,0004.04
2023-07-03 13:50:00,SystemResetWarning,0832.2,4.99,000.00,029.4,026.2,000.0,038.0,030.7,28.5,0000.0,0004.59,0009.88,0004.03
2023-07-03 13:51:00,SystemResetWarning,0832.3,4.99,000.00,029.4,026.6,000.0,038.0,030.8,27.8,0000.0,0004.56,0009.93,0004.03
2023-07-03 13:52:00,SystemResetWarning,0832.3,5.01,000.00,029.4,026.9,000.0,038.0,030.8,28.0,0000.0,0004.56,0009.99,0004.02
2023-07-03 13:53:00,SystemResetWarning,0832.3,5.01,000.00,029.4,027.2,000.0,038.0,030.9,26.4,0000.0,0004.55,0010.08,0004.00
2023-07-03 13:54:00,SystemResetWarning,0832.3,4.99,000.00,029.4,027.4,000.0,038.0,030.9,30.1,0000.0,0004.52,0009.63,0003.98
2023-07-03 13:55:00,SystemResetWarning,0832.3,5.00,000.00,029.4,027.6,000.0,038.0,031.0,29.4,0000.0,0004.47,0008.85,0003.97
2023-07-03 13:56:00,SystemResetWarning,0832.3,5.00,000.00,029.4,027.8,000.0,038.0,031.0,31.1,0000.0,0004.42,0008.04,0003.96
2023-07-03 13:57:00,SystemResetWarning,0832.3,5.00,000.00,029.5,028.0,000.0,038.0,031.1,30.8,0000.0,0004.45,0008.22,0003.97
2023-07-03 13:58:00,SystemResetWarning,0832.3,5.00,000.00,029.5,028.1,000.0,038.0,031.1,30.9,0000.0,0004.47,0008.63,0003.97
2023-07-03 13:59:00,SystemResetWarning,0832.3,5.00,000.00,029.5,028.2,000.0,038.0,031.1,30.2,0000.0,0004.46,0009.12,0003.96
